When you browse on this site, cookies collect data to enhance your experience and personalize the content and advertising you see.
Visit our Privacy Policy to learn more. By continuing to use the site, you agree to this use of cookies and data.
  • en France
  • Liste des pays
  • À 7 jours
  • Température de l'eau
  • Carte satellitaire
  • Carte météo
  • Widgets météo
  • user-avatar
    Se connecter

    Météo par heure à Sherpur

    Ce jour, 19 Janvier, Samedi

    Heure Température Précipitation Vent Pression Humidité
    00:00 +1°C° 0 mm 1 m/s 606 mmHg 76%
    01:00 0°C° 0 mm 1 m/s 606 mmHg 76%
    02:00 0°C° 0 mm 1 m/s 606 mmHg 76%
    03:00 0°C° 0 mm 1 m/s 606 mmHg 75%
    04:00 0°C° 0 mm 1 m/s 606 mmHg 75%
    05:00 -1°C° 0 mm 2 m/s 605 mmHg 77%
    06:00 0°C° 0.4 mm 1 m/s 605 mmHg 80%
    07:00 0°C° 0.4 mm 1 m/s 605 mmHg 84%
    08:00 0°C° 0.4 mm 1 m/s 605 mmHg 87%
    09:00 0°C° 0.4 mm 1 m/s 605 mmHg 87%
    10:00 +1°C° 0.4 mm 1 m/s 605 mmHg 87%
    11:00 -1°C° 0.4 mm 2 m/s 605 mmHg 86%
    12:00 +1°C° 0.1 mm 2 m/s 605 mmHg 84%
    13:00 +1°C° 0.1 mm 2 m/s 605 mmHg 82%
    14:00 +1°C° 0.1 mm 2 m/s 605 mmHg 80%
    15:00 +1°C° 0.1 mm 2 m/s 605 mmHg 79%
    16:00 +1°C° 0.1 mm 2 m/s 605 mmHg 78%
    17:00 +1°C° 0.1 mm 2 m/s 604 mmHg 77%
    18:00 -1°C° 0.2 mm 2 m/s 605 mmHg 79%
    19:00 -1°C° 0.2 mm 2 m/s 605 mmHg 80%
    20:00 -2°C° 0.2 mm 2 m/s 605 mmHg 81%
    21:00 -2°C° 0.9 mm 2 m/s 605 mmHg 84%
    22:00 -3°C° 0.9 mm 2 m/s 604 mmHg 86%
    23:00 -3°C° 0.9 mm 2 m/s 604 mmHg 89%

    Demain, 20 Janvier, Dimanche

    Heure Température Précipitation Vent Pression Humidité
    00:00 -3°C° 0.8 mm 2 m/s 604 mmHg 90%
    01:00 -3°C° 0.8 mm 2 m/s 604 mmHg 90%
    02:00 -3°C° 0.8 mm 2 m/s 604 mmHg 91%
    03:00 -3°C° 0.7 mm 2 m/s 604 mmHg 91%
    04:00 -3°C° 0.7 mm 2 m/s 603 mmHg 91%
    05:00 -3°C° 0.7 mm 2 m/s 603 mmHg 91%
    06:00 -3°C° 0.7 mm 2 m/s 603 mmHg 91%
    07:00 -4°C° 0.7 mm 2 m/s 603 mmHg 91%
    08:00 -4°C° 0.7 mm 2 m/s 603 mmHg 91%
    09:00 -3°C° 1 mm 2 m/s 603 mmHg 90%
    10:00 -3°C° 1 mm 2 m/s 603 mmHg 90%
    11:00 -4°C° 1 mm 3 m/s 603 mmHg 89%
    12:00 -2°C° 0.7 mm 3 m/s 603 mmHg 88%
    13:00 -2°C° 0.7 mm 3 m/s 602 mmHg 88%
    14:00 -2°C° 0.7 mm 3 m/s 602 mmHg 87%
    15:00 -2°C° 0.4 mm 3 m/s 602 mmHg 87%
    16:00 -2°C° 0.4 mm 2 m/s 602 mmHg 87%
    17:00 -2°C° 0.4 mm 2 m/s 602 mmHg 87%
    18:00 -3°C° 0.2 mm 2 m/s 603 mmHg 87%
    19:00 -3°C° 0.2 mm 2 m/s 603 mmHg 86%
    20:00 -4°C° 0.2 mm 2 m/s 604 mmHg 86%
    21:00 -4°C° 0 mm 2 m/s 604 mmHg 84%
    22:00 -3°C° 0 mm 1 m/s 604 mmHg 82%
    23:00 -3°C° 0 mm 1 m/s 604 mmHg 80%

    Après-demain, 21 Janvier, Lundi

    Heure Température Précipitation Vent Pression Humidité
    00:00 -4°C° 0 mm 1 m/s 604 mmHg 79%
    01:00 -4°C° 0 mm 1 m/s 604 mmHg 78%
    02:00 -4°C° 0 mm 1 m/s 604 mmHg 76%
    03:00 -6°C° 0 mm 1 m/s 604 mmHg 75%
    04:00 -7°C° 0 mm 2 m/s 604 mmHg 73%
    05:00 -7°C° 0 mm 2 m/s 604 mmHg 72%
    06:00 -8°C° 0 mm 2 m/s 604 mmHg 69%
    07:00 -8°C° 0 mm 2 m/s 604 mmHg 66%
    08:00 -8°C° 0 mm 2 m/s 605 mmHg 63%
    09:00 -6°C° 0 mm 2 m/s 605 mmHg 58%
    10:00 -5°C° 0 mm 2 m/s 606 mmHg 52%
    11:00 -1°C° 0 mm 1 m/s 606 mmHg 47%
    12:00 0°C° 0 mm 1 m/s 605 mmHg 45%
    13:00 0°C° 0 mm 1 m/s 605 mmHg 43%
    14:00 +1°C° 0 mm 1 m/s 604 mmHg 41%
    15:00 0°C° 0 mm 1 m/s 604 mmHg 41%
    16:00 -1°C° 0 mm 1 m/s 603 mmHg 42%
    17:00 -2°C° 0 mm 1 m/s 603 mmHg 42%
    18:00 -5°C° 0 mm 2 m/s 603 mmHg 41%
    19:00 -6°C° 0 mm 2 m/s 604 mmHg 39%
    20:00 -8°C° 0 mm 3 m/s 604 mmHg 37%
    21:00 -9°C° 0 mm 3 m/s 604 mmHg 37%
    22:00 -9°C° 0 mm 3 m/s 604 mmHg 37%
    23:00 -9°C° 0 mm 3 m/s 604 mmHg 36%

    22 Janvier, Mardi

    Heure Température Précipitation Vent Pression Humidité
    00:00 -9°C° 0 mm 3 m/s 603 mmHg 37%
    01:00 -9°C° 0 mm 3 m/s 603 mmHg 37%
    02:00 -10°C° 0 mm 3 m/s 603 mmHg 37%
    03:00 -10°C° 0 mm 3 m/s 603 mmHg 36%
    04:00 -10°C° 0 mm 3 m/s 602 mmHg 36%
    05:00 -10°C° 0 mm 3 m/s 602 mmHg 35%
    06:00 -10°C° 0 mm 3 m/s 602 mmHg 35%
    07:00 -10°C° 0 mm 3 m/s 603 mmHg 34%
    08:00 -10°C° 0 mm 3 m/s 603 mmHg 33%
    09:00 -7°C° 0 mm 2 m/s 603 mmHg 33%
    10:00 -3°C° 0 mm 1 m/s 604 mmHg 33%
    11:00 -1°C° 0 mm 1 m/s 604 mmHg 32%
    12:00 0°C° 0 mm 1 m/s 603 mmHg 34%
    13:00 0°C° 0 mm 1 m/s 603 mmHg 36%
    14:00 +1°C° 0 mm 1 m/s 602 mmHg 38%
    15:00 0°C° 0 mm 1 m/s 602 mmHg 43%
    16:00 -1°C° 0 mm 1 m/s 602 mmHg 47%
    17:00 -2°C° 0 mm 1 m/s 602 mmHg 51%
    18:00 -3°C° 0 mm 1 m/s 602 mmHg 51%
    19:00 -4°C° 0 mm 1 m/s 603 mmHg 51%
    20:00 -7°C° 0 mm 2 m/s 604 mmHg 51%
    21:00 -7°C° 0 mm 2 m/s 604 mmHg 50%
    22:00 -7°C° 0 mm 2 m/s 604 mmHg 49%
    23:00 -7°C° 0 mm 2 m/s 604 mmHg 49%

    23 Janvier, Mercredi

    Heure Température Précipitation Vent Pression Humidité
    00:00 -7°C° 0 mm 2 m/s 604 mmHg 48%
    01:00 -8°C° 0 mm 2 m/s 605 mmHg 48%
    02:00 -8°C° 0 mm 2 m/s 605 mmHg 48%
    03:00 -8°C° 0 mm 2 m/s 605 mmHg 48%
    04:00 -8°C° 0 mm 2 m/s 604 mmHg 49%
    05:00 -8°C° 0 mm 2 m/s 604 mmHg 49%
    06:00 -8°C° 0 mm 2 m/s 605 mmHg 50%
    07:00 -7°C° 0 mm 1 m/s 605 mmHg 52%
    08:00 -7°C° 0 mm 1 m/s 606 mmHg 53%
    09:00 -4°C° 0 mm 1 m/s 606 mmHg 51%
    10:00 -3°C° 0 mm 1 m/s 606 mmHg 49%
    11:00 -2°C° 0 mm 1 m/s 607 mmHg 48%
    12:00 -2°C° 0 mm 1 m/s 607 mmHg 50%
    13:00 -3°C° 0 mm 2 m/s 606 mmHg 52%
    14:00 -3°C° 0 mm 2 m/s 606 mmHg 55%
    15:00 -4°C° 0 mm 2 m/s 606 mmHg 58%
    16:00 -4°C° 0 mm 2 m/s 606 mmHg 61%
    17:00 -5°C° 0 mm 2 m/s 606 mmHg 64%
    18:00 -5°C° 0 mm 2 m/s 606 mmHg 64%
    19:00 -4°C° 0 mm 1 m/s 606 mmHg 65%
    20:00 -4°C° 0 mm 1 m/s 607 mmHg 65%
    21:00 -6°C° 0 mm 1 m/s 607 mmHg 65%
    22:00 -6°C° 0 mm 1 m/s 607 mmHg 64%
    23:00 -6°C° 0 mm 1 m/s 607 mmHg 64%

    24 Janvier, Jeudi

    Heure Température Précipitation Vent Pression Humidité
    00:00 -6°C° 0 mm 1 m/s 607 mmHg 64%
    01:00 -6°C° 0 mm 1 m/s 607 mmHg 64%
    02:00 -7°C° 0 mm 1 m/s 607 mmHg 64%
    03:00 -7°C° 0 mm 1 m/s 607 mmHg 64%
    04:00 -7°C° 0 mm 1 m/s 607 mmHg 63%
    05:00 -7°C° 0 mm 1 m/s 607 mmHg 63%
    06:00 -7°C° 0 mm 1 m/s 607 mmHg 63%
    07:00 -7°C° 0 mm 1 m/s 607 mmHg 62%
    08:00 -7°C° 0 mm 1 m/s 608 mmHg 62%
    09:00 -6°C° 0 mm 1 m/s 608 mmHg 58%
    10:00 -4°C° 0 mm 1 m/s 608 mmHg 55%
    11:00 -2°C° 0 mm 1 m/s 609 mmHg 51%
    12:00 -2°C° 0 mm 1 m/s 608 mmHg 52%
    13:00 -1°C° 0 mm 1 m/s 608 mmHg 54%
    14:00 -3°C° 0 mm 2 m/s 607 mmHg 55%
    15:00 -1°C° 0 mm 1 m/s 607 mmHg 57%
    16:00 -2°C° 0 mm 1 m/s 607 mmHg 58%
    17:00 -2°C° 0 mm 1 m/s 607 mmHg 60%
    18:00 -3°C° 0 mm 1 m/s 607 mmHg 60%
    19:00 -4°C° 0 mm 1 m/s 608 mmHg 60%
    20:00 -6°C° 0 mm 1 m/s 608 mmHg 60%
    21:00 -6°C° 0 mm 1 m/s 608 mmHg 59%
    22:00 -8°C° 0 mm 2 m/s 608 mmHg 58%
    23:00 -8°C° 0 mm 2 m/s 608 mmHg 57%
    Voir plus